| time (UTC) | temp C | wind direction | speed KPH | gust KPH | rain 1hr cm | rain 24hr cm | rain mn cm | humidity % | barometer mb |
| 20260906234548 | 16 | 5 | 16.1 | 24.1 | 0.00 | 3.66 | 2.92 | 79 | 1016.9 |
| 20260906234046 | 16 | 351 | 16.1 | 24.1 | 0.00 | 3.66 | 2.92 | 79 | 1016.9 |
| 20260906233547 | 16 | 331 | 14.5 | 25.7 | 0.00 | 3.66 | 2.92 | 80 | 1017.1 |
| 20260906233055 | 16 | 333 | 16.1 | 25.7 | 0.00 | 3.66 | 2.92 | 79 | 1017.0 |
| 20260906232548 | 16 | 336 | 16.1 | 27.4 | 0.00 | 3.66 | 2.92 | 80 | 1017.1 |
| 20260906232045 | 16 | 329 | 17.7 | 29.0 | 0.00 | 3.66 | 2.92 | 80 | 1017.1 |
| 20260906231553 | 16 | 339 | 17.7 | 29.0 | 0.00 | 3.66 | 2.92 | 79 | 1017.2 |
| 20260906231044 | 16 | 324 | 12.9 | 22.5 | 0.00 | 3.66 | 2.92 | 80 | 1017.2 |
| 20260906230545 | 16 | 323 | 14.5 | 22.5 | 0.00 | 3.66 | 2.92 | 78 | 1017.2 |
| 20260906230045 | 16 | 324 | 12.9 | 22.5 | 0.00 | 3.66 | 2.92 | 77 | 1017.2 |
| 20260906225544 | 17 | 342 | 14.5 | 24.1 | 0.00 | 3.66 | 2.92 | 76 | 1017.3 |
| 20260906225047 | 17 | 325 | 17.7 | 24.1 | 0.00 | 3.66 | 2.92 | 76 | 1017.2 |
| 20260906224543 | 17 | 27 | 14.5 | 22.5 | 0.00 | 3.66 | 2.92 | 77 | 1017.0 |
| 20260906224043 | 17 | 344 | 14.5 | 20.9 | 0.00 | 3.66 | 2.92 | 77 | 1017.0 |
| 20260906223541 | 17 | 348 | 16.1 | 22.5 | 0.00 | 3.66 | 2.92 | 76 | 1017.2 |
| 20260906223041 | 16 | 333 | 12.9 | 22.5 | 0.00 | 3.66 | 2.92 | 76 | 1017.2 |
| 20260906222542 | 16 | 355 | 11.3 | 20.9 | 0.00 | 3.66 | 2.92 | 76 | 1017.3 |
| 20260906222043 | 17 | 11 | 12.9 | 20.9 | 0.00 | 3.66 | 2.92 | 77 | 1017.2 |
| 20260906221544 | 16 | 340 | 11.3 | 20.9 | 0.00 | 3.66 | 2.92 | 78 | 1017.3 |
| 20260906221037 | 16 | 360 | 11.3 | 17.7 | 0.00 | 3.66 | 2.92 | 78 | 1017.5 |
| 20260906220537 | 16 | 360 | 12.9 | 17.7 | 0.00 | 3.66 | 2.92 | 78 | 1017.6 |
| 20260906220113 | 16 | 5 | 9.7 | 17.7 | 0.00 | 3.66 | 2.92 | 78 | 1017.7 |
| 20260906215534 | 16 | 360 | 9.7 | 17.7 | 0.00 | 3.66 | 2.92 | 78 | 1017.7 |
| 20260906215035 | 16 | 10 | 11.3 | 17.7 | 0.00 | 3.66 | 2.92 | 78 | 1017.8 |
| 20260906214538 | 16 | 334 | 8.0 | 14.5 | 0.00 | 3.66 | 2.92 | 79 | 1017.8 |
| 20260906214034 | 16 | 306 | 8.0 | 16.1 | 0.00 | 3.66 | 2.92 | 79 | 1017.7 |
| 20260906213533 | 16 | 355 | 8.0 | 16.1 | 0.00 | 3.66 | 2.92 | 79 | 1017.7 |
| 20260906213036 | 16 | 333 | 11.3 | 16.1 | 0.00 | 3.66 | 2.92 | 79 | 1017.7 |
| 20260906212532 | 16 | 349 | 8.0 | 19.3 | 0.00 | 3.66 | 2.92 | 79 | 1017.7 |
| 20260906212032 | 15 | 5 | 12.9 | 19.3 | 0.00 | 3.66 | 2.92 | 78 | 1017.6 |
| 20260906211538 | 15 | 324 | 9.7 | 19.3 | 0.00 | 3.66 | 2.92 | 79 | 1017.7 |
| 20260906211033 | 15 | 338 | 11.3 | 19.3 | 0.00 | 3.66 | 2.92 | 79 | 1017.7 |
| 20260906210534 | 15 | 333 | 11.3 | 22.5 | 0.00 | 3.66 | 2.92 | 79 | 1017.6 |
| 20260906210051 | 15 | 326 | 11.3 | 22.5 | 0.00 | 3.66 | 2.92 | 80 | 1017.7 |
| 20260906205531 | 15 | 322 | 12.9 | 20.9 | 0.00 | 3.66 | 2.92 | 79 | 1017.6 |
| 20260906205028 | 15 | 355 | 9.7 | 19.3 | 0.00 | 3.66 | 2.92 | 79 | 1017.6 |
| 20260906204530 | 15 | 342 | 9.7 | 20.9 | 0.00 | 3.66 | 2.92 | 79 | 1017.7 |
| 20260906204027 | 15 | 348 | 14.5 | 20.9 | 0.00 | 3.66 | 2.92 | 78 | 1017.6 |
| 20260906203526 | 15 | 338 | 12.9 | 22.5 | 0.00 | 3.66 | 2.92 | 80 | 1017.7 |
| 20260906202524 | 15 | 348 | 11.3 | 19.3 | 0.00 | 3.66 | 2.92 | 81 | 1017.6 |
| 20260906202024 | 15 | 341 | 9.7 | 14.5 | 0.00 | 3.66 | 2.92 | 82 | 1017.7 |
| 20260906201523 | 14 | 12 | 8.0 | 19.3 | 0.00 | 3.66 | 2.92 | 82 | 1017.7 |
| 20260906201024 | 14 | 328 | 11.3 | 19.3 | 0.00 | 3.66 | 2.92 | 82 | 1017.7 |
| 20260906200526 | 14 | 302 | 9.7 | 19.3 | 0.00 | 3.66 | 2.92 | 81 | 1017.7 |
| 20260906200035 | 14 | 346 | 9.7 | 17.7 | 0.00 | 3.66 | 2.92 | 80 | 1017.8 |
| 20260906195521 | 14 | 355 | 9.7 | 17.7 | 0.00 | 3.66 | 2.92 | 81 | 1017.8 |
| 20260906195021 | 14 | 330 | 8.0 | 17.7 | 0.00 | 3.66 | 2.92 | 81 | 1017.9 |
| 20260906194520 | 14 | 327 | 8.0 | 17.7 | 0.00 | 3.66 | 2.92 | 80 | 1018.0 |
| 20260906194019 | 14 | 355 | 11.3 | 17.7 | 0.00 | 3.66 | 2.92 | 81 | 1018.0 |
| 20260906193518 | 14 | 324 | 11.3 | 17.7 | 0.00 | 3.66 | 2.92 | 80 | 1018.0 |
| 20260906193018 | 14 | 5 | 11.3 | 17.7 | 0.00 | 3.66 | 2.92 | 80 | 1018.0 |
| 20260906192517 | 14 | 330 | 8.0 | 14.5 | 0.00 | 3.66 | 2.92 | 81 | 1018.1 |
| 20260906192016 | 14 | 336 | 11.3 | 16.1 | 0.00 | 3.66 | 2.92 | 82 | 1018.1 |
| 20260906191517 | 14 | 317 | 9.7 | 16.1 | 0.00 | 3.66 | 2.92 | 82 | 1018.2 |
| 20260906191016 | 13 | 345 | 8.0 | 14.5 | 0.00 | 3.66 | 2.92 | 82 | 1018.3 |
| 20260906190516 | 13 | 336 | 9.7 | 14.5 | 0.00 | 3.66 | 2.92 | 82 | 1018.3 |
| 20260906190016 | 13 | 343 | 6.4 | 12.9 | 0.00 | 3.66 | 2.92 | 82 | 1018.5 |
| 20260906185515 | 13 | 327 | 6.4 | 16.1 | 0.00 | 3.66 | 2.92 | 82 | 1018.5 |
| 20260906185015 | 13 | 341 | 8.0 | 16.1 | 0.00 | 3.66 | 2.92 | 81 | 1018.4 |
| 20260906184515 | 13 | 329 | 9.7 | 16.1 | 0.00 | 3.66 | 2.92 | 82 | 1018.4 |
| 20260906184014 | 13 | 328 | 8.0 | 14.5 | 0.00 | 3.66 | 2.92 | 83 | 1018.5 |
| 20260906183520 | 13 | 337 | 8.0 | 12.9 | 0.00 | 3.66 | 2.92 | 83 | 1018.7 |
| 20260906183027 | 13 | 315 | 3.2 | 14.5 | 0.00 | 3.66 | 2.92 | 83 | 1018.8 |
| 20260906182517 | 13 | 13 | 6.4 | 16.1 | 0.00 | 3.66 | 2.92 | 83 | 1018.8 |
| 20260906182014 | 13 | 351 | 8.0 | 17.7 | 0.00 | 3.66 | 2.92 | 83 | 1018.7 |
| 20260906181514 | 13 | 336 | 12.9 | 17.7 | 0.00 | 3.66 | 2.92 | 83 | 1018.5 |
| 20260906181013 | 13 | 350 | 9.7 | 20.9 | 0.00 | 3.66 | 2.92 | 83 | 1018.5 |
| 20260906180515 | 13 | 11 | 14.5 | 24.1 | 0.00 | 3.66 | 2.92 | 82 | 1018.5 |
| 20260906180027 | 13 | 23 | 16.1 | 25.7 | 0.00 | 3.66 | 2.92 | 82 | 1018.5 |
| 20260906175515 | 13 | 5 | 16.1 | 25.7 | 0.00 | 3.66 | 2.92 | 82 | 1018.2 |
| 20260906175016 | 13 | 340 | 16.1 | 24.1 | 0.00 | 3.66 | 2.92 | 83 | 1018.3 |
| 20260906174520 | 13 | 38 | 16.1 | 27.4 | 0.00 | 3.66 | 2.92 | 82 | 1018.5 |
| 20260906174013 | 13 | 321 | 17.7 | 25.7 | 0.00 | 3.66 | 2.92 | 82 | 1018.5 |
| 20260906173511 | 14 | 28 | 16.1 | 25.7 | 0.00 | 3.66 | 2.92 | 84 | 1018.7 |
| 20260906173016 | 14 | 345 | 19.3 | 30.6 | 0.00 | 3.66 | 2.92 | 85 | 1018.5 |
| 20260906172509 | 13 | 18 | 20.9 | 35.4 | 0.00 | 3.66 | 2.92 | 86 | 1018.1 |
| 20260906172008 | 13 | 25 | 19.3 | 35.4 | 0.00 | 3.66 | 2.92 | 86 | 1018.1 |
| 20260906171507 | 13 | 12 | 16.1 | 27.4 | 0.00 | 3.66 | 2.92 | 88 | 1018.5 |
| 20260906171007 | 13 | 28 | 16.1 | 27.4 | 0.00 | 3.66 | 2.92 | 88 | 1018.9 |
| 20260906170505 | 13 | 13 | 14.5 | 30.6 | 0.00 | 3.66 | 2.92 | 90 | 1019.0 |
| 20260906170004 | 13 | 26 | 19.3 | 30.6 | 0.00 | 3.66 | 2.92 | 89 | 1019.0 |
| 20260906165505 | 13 | 14 | 17.7 | 27.4 | 0.00 | 3.66 | 2.92 | 90 | 1018.9 |
| 20260906165007 | 13 | 25 | 17.7 | 25.7 | 0.00 | 3.66 | 2.92 | 89 | 1019.2 |
| 20260906164503 | 12 | 22 | 14.5 | 27.4 | 0.00 | 3.66 | 2.92 | 89 | 1019.1 |
| 20260906164003 | 12 | 42 | 16.1 | 30.6 | 0.00 | 3.66 | 2.92 | 90 | 1019.0 |
| 20260906163501 | 12 | 30 | 17.7 | 30.6 | 0.00 | 3.66 | 2.92 | 91 | 1018.8 |
| 20260906163100 | 12 | 38 | 17.7 | 29.0 | 0.00 | 3.66 | 2.92 | 92 | 1018.8 |
| 20260906162600 | 12 | 19 | 17.7 | 29.0 | 0.00 | 3.66 | 2.92 | 92 | 1018.7 |
| 20260906162059 | 12 | 39 | 16.1 | 25.7 | 0.00 | 3.66 | 2.92 | 92 | 1018.7 |
| 20260906161604 | 12 | 355 | 17.7 | 25.7 | 0.05 | 3.66 | 2.92 | 92 | 1018.4 |
| 20260906161059 | 12 | 360 | 17.7 | 25.7 | 0.08 | 3.66 | 2.92 | 92 | 1018.4 |
| 20260906160557 | 12 | 355 | 12.9 | 17.7 | 0.08 | 3.66 | 2.92 | 91 | 1019.2 |
| 20260906160057 | 12 | 5 | 6.4 | 11.3 | 0.08 | 3.66 | 2.92 | 92 | 1020.0 |
| 20260906155554 | 12 | 55 | 3.2 | 14.5 | 0.08 | 3.73 | 2.92 | 91 | 1020.5 |
| 20260906155054 | 12 | 222 | 3.2 | 9.7 | 0.08 | 3.73 | 2.92 | 91 | 1020.8 |
| 20260906154554 | 12 | 36 | 0.0 | 11.3 | 0.08 | 3.73 | 2.92 | 91 | 1020.8 |
| 20260906154053 | 12 | 36 | 4.8 | 11.3 | 0.08 | 3.73 | 2.92 | 91 | 1020.4 |
| 20260906153557 | 12 | 49 | 8.0 | 16.1 | 0.08 | 3.73 | 2.92 | 91 | 1019.8 |
| 20260906153056 | 12 | 42 | 6.4 | 17.7 | 0.08 | 3.73 | 2.92 | 90 | 1019.6 |
| 20260906152557 | 12 | 24 | 11.3 | 16.1 | 0.08 | 3.73 | 2.92 | 89 | 1019.5 |
| 20260906152053 | 12 | 42 | 3.2 | 14.5 | 0.08 | 3.73 | 2.92 | 89 | 1019.8 |
| 20260906151550 | 12 | 48 | 8.0 | 17.7 | 0.03 | 3.68 | 2.87 | 88 | 1019.8 |
| 20260906151049 | 12 | 344 | 11.3 | 19.3 | 0.00 | 3.66 | 2.84 | 88 | 1019.6 |
| 20260906150549 | 12 | 34 | 9.7 | 16.1 | 0.00 | 3.66 | 2.84 | 87 | 1019.8 |
| 20260906150058 | 12 | 17 | 9.7 | 17.7 | 0.00 | 3.66 | 2.84 | 86 | 1019.8 |
| 20260906145547 | 12 | 328 | 11.3 | 17.7 | 0.03 | 3.66 | 2.84 | 88 | 1019.7 |
| 20260906145048 | 12 | 309 | 9.7 | 14.5 | 0.05 | 3.66 | 2.84 | 91 | 1020.0 |
| 20260906144558 | 12 | 328 | 9.7 | 14.5 | 0.08 | 3.66 | 2.84 | 93 | 1020.0 |
| 20260906144045 | 11 | 305 | 8.0 | 14.5 | 0.08 | 3.66 | 2.84 | 94 | 1020.1 |
| 20260906143543 | 11 | 297 | 6.4 | 12.9 | 0.08 | 3.66 | 2.84 | 94 | 1020.2 |
| 20260906143043 | 11 | 284 | 8.0 | 16.1 | 0.13 | 3.66 | 2.84 | 94 | 1020.4 |
| 20260906142543 | 11 | 287 | 9.7 | 17.7 | 0.20 | 3.66 | 2.84 | 95 | 1020.5 |
| 20260906142045 | 11 | 284 | 11.3 | 17.7 | 0.23 | 3.66 | 2.84 | 95 | 1020.7 |
| 20260906141546 | 11 | 282 | 11.3 | 16.1 | 0.25 | 3.66 | 2.84 | 95 | 1020.9 |
| 20260906141044 | 11 | 286 | 9.7 | 16.1 | 0.30 | 3.66 | 2.84 | 95 | 1021.1 |
| 20260906140542 | 11 | 286 | 11.3 | 16.1 | 0.41 | 3.66 | 2.84 | 95 | 1020.9 |
| 20260906140042 | 11 | 258 | 6.4 | 11.3 | 0.43 | 3.66 | 2.84 | 95 | 1021.4 |
| 20260906135540 | 11 | 286 | 6.4 | 11.3 | 0.43 | 3.68 | 2.84 | 95 | 1021.3 |
| 20260906135040 | 11 | 246 | 4.8 | 8.0 | 0.48 | 3.66 | 2.82 | 95 | 1021.7 |
| 20260906134541 | 11 | 235 | 4.8 | 8.0 | 0.79 | 3.63 | 2.79 | 94 | 1021.9 |
| 20260906134039 | 11 | 212 | 1.6 | 4.8 | 0.91 | 3.63 | 2.79 | 94 | 1022.0 |
| 20260906133538 | 11 | 224 | 1.6 | 11.3 | 0.94 | 3.63 | 2.79 | 94 | 1022.0 |
| 20260906133038 | 11 | 284 | 4.8 | 12.9 | 0.89 | 3.58 | 2.74 | 95 | 1021.6 |
| 20260906132538 | 11 | 273 | 8.0 | 12.9 | 0.81 | 3.51 | 2.67 | 94 | 1021.5 |
| 20260906132039 | 11 | 228 | 3.2 | 8.0 | 0.79 | 3.48 | 2.64 | 94 | 1021.7 |
| 20260906131539 | 11 | 248 | 4.8 | 14.5 | 0.76 | 3.45 | 2.62 | 94 | 1021.7 |
| 20260906131037 | 11 | 270 | 8.0 | 14.5 | 0.69 | 3.38 | 2.54 | 94 | 1021.3 |
| 20260906130537 | 11 | 277 | 9.7 | 17.7 | 0.61 | 3.30 | 2.46 | 94 | 1021.3 |
| 20260906130045 | 11 | 282 | 11.3 | 20.9 | 0.58 | 3.28 | 2.44 | 94 | 1021.4 |
| 20260906125539 | 11 | 263 | 14.5 | 24.1 | 0.56 | 3.28 | 2.41 | 94 | 1021.2 |
| 20260906125040 | 11 | 264 | 17.7 | 24.1 | 0.46 | 3.17 | 2.31 | 94 | 1021.2 |
| 20260906124537 | 11 | 223 | 12.9 | 19.3 | 0.13 | 2.84 | 1.98 | 95 | 1021.6 |
| 20260906124039 | 11 | 250 | 14.5 | 19.3 | 0.05 | 2.74 | 1.88 | 95 | 1021.2 |
| 20260906123536 | 11 | 262 | 11.3 | 17.7 | 0.03 | 2.72 | 1.85 | 95 | 1020.5 |
| 20260906123037 | 11 | 311 | 11.3 | 20.9 | 0.03 | 2.72 | 1.85 | 95 | 1020.2 |
| 20260906122536 | 11 | 348 | 14.5 | 25.7 | 0.03 | 2.72 | 1.85 | 95 | 1019.9 |
| 20260906122036 | 11 | 322 | 16.1 | 25.7 | 0.08 | 2.72 | 1.85 | 95 | 1020.0 |
| 20260906121535 | 11 | 338 | 12.9 | 22.5 | 0.08 | 2.72 | 1.85 | 95 | 1020.5 |
| 20260906121035 | 11 | 335 | 12.9 | 22.5 | 0.15 | 2.72 | 1.85 | 95 | 1020.7 |
| 20260906120537 | 11 | 330 | 11.3 | 24.1 | 0.38 | 2.72 | 1.85 | 95 | 1020.7 |
| 20260906120046 | 11 | 340 | 14.5 | 25.7 | 0.81 | 2.72 | 1.85 | 95 | 1020.7 |
| 20260906115536 | 11 | 340 | 16.1 | 22.5 | 0.99 | 2.74 | 1.85 | 95 | 1020.7 |
| 20260906115034 | 11 | 349 | 14.5 | 20.9 | 0.99 | 2.74 | 1.85 | 95 | 1021.0 |
| 20260906114539 | 11 | 322 | 11.3 | 24.1 | 0.99 | 2.74 | 1.85 | 95 | 1021.4 |
| 20260906114034 | 11 | 333 | 11.3 | 24.1 | 0.97 | 2.72 | 1.83 | 95 | 1021.3 |
| 20260906113533 | 10 | 355 | 17.7 | 22.5 | 0.99 | 2.72 | 1.83 | 95 | 1021.2 |
| 20260906113133 | 10 | 13 | 14.5 | 19.3 | 0.99 | 2.72 | 1.83 | 95 | 1021.2 |
| 20260906112647 | 10 | 342 | 14.5 | 19.3 | 0.99 | 2.72 | 1.83 | 95 | 1021.4 |
| 20260906112031 | 11 | 309 | 14.5 | 24.1 | 0.94 | 2.67 | 1.78 | 95 | 1021.4 |
| 20260906111533 | 11 | 315 | 8.0 | 25.7 | 1.02 | 2.67 | 1.78 | 95 | 1021.6 |
| 20260906111030 | 11 | 292 | 19.3 | 41.8 | 0.91 | 2.57 | 1.68 | 95 | 1021.5 |
| 20260906110530 | 11 | 238 | 29.0 | 41.8 | 0.69 | 2.34 | 1.42 | 94 | 1022.6 |
| 20260906110039 | 11 | 221 | 27.4 | 40.2 | 0.13 | 1.78 | 0.89 | 94 | 1022.4 |
| 20260906105528 | 11 | 201 | 27.4 | 37.0 | 0.10 | 1.75 | 0.86 | 95 | 1022.2 |
| 20260906105028 | 11 | 248 | 14.5 | 24.1 | 0.10 | 1.75 | 0.86 | 95 | 1020.9 |
| 20260906104528 | 11 | 313 | 14.5 | 22.5 | 0.10 | 1.75 | 0.86 | 95 | 1019.7 |
| 20260906104027 | 11 | 327 | 17.7 | 25.7 | 0.10 | 1.75 | 0.86 | 95 | 1020.0 |
| 20260906103527 | 11 | 309 | 19.3 | 24.1 | 0.08 | 1.73 | 0.84 | 95 | 1020.3 |
| 20260906103026 | 11 | 317 | 16.1 | 22.5 | 0.08 | 1.73 | 0.84 | 95 | 1020.7 |
| 20260906102526 | 11 | 317 | 11.3 | 19.3 | 0.08 | 1.73 | 0.84 | 95 | 1020.7 |
| 20260906102026 | 11 | 310 | 12.9 | 20.9 | 0.08 | 1.73 | 0.84 | 95 | 1020.8 |
| 20260906101525 | 11 | 320 | 12.9 | 20.9 | 0.00 | 1.65 | 0.76 | 95 | 1021.1 |
| 20260906101025 | 11 | 346 | 11.3 | 19.3 | 0.00 | 1.65 | 0.76 | 95 | 1020.8 |
| 20260906100525 | 11 | 327 | 14.5 | 20.9 | 0.00 | 1.65 | 0.76 | 95 | 1020.5 |
| 20260906100024 | 11 | 321 | 9.7 | 17.7 | 0.00 | 1.65 | 0.76 | 95 | 1020.6 |
| 20260906095527 | 11 | 286 | 12.9 | 24.1 | 0.00 | 1.65 | 0.76 | 95 | 1020.8 |
| 20260906095024 | 11 | 294 | 14.5 | 24.1 | 0.00 | 1.65 | 0.76 | 95 | 1020.8 |
| 20260906094532 | 11 | 297 | 17.7 | 24.1 | 0.00 | 1.65 | 0.76 | 95 | 1020.7 |
| 20260906094023 | 11 | 310 | 17.7 | 24.1 | 0.00 | 1.65 | 0.76 | 95 | 1021.0 |
| 20260906093523 | 11 | 304 | 17.7 | 24.1 | 0.03 | 1.65 | 0.76 | 95 | 1020.9 |
| 20260906093022 | 11 | 332 | 14.5 | 24.1 | 0.03 | 1.65 | 0.76 | 95 | 1020.8 |
| 20260906092525 | 11 | 329 | 14.5 | 24.1 | 0.03 | 1.65 | 0.76 | 95 | 1020.6 |
| 20260906092026 | 11 | 304 | 16.1 | 25.7 | 0.03 | 1.65 | 0.76 | 95 | 1020.6 |
| 20260906091522 | 11 | 335 | 16.1 | 30.6 | 0.03 | 1.65 | 0.76 | 95 | 1020.6 |
| 20260906091022 | 11 | 324 | 17.7 | 32.2 | 0.03 | 1.65 | 0.76 | 95 | 1020.5 |
| 20260906090523 | 11 | 342 | 24.1 | 32.2 | 0.03 | 1.65 | 0.76 | 95 | 1020.4 |
| 20260906090021 | 11 | 9 | 17.7 | 29.0 | 0.03 | 1.65 | 0.76 | 95 | 1020.4 |
| 20260906085520 | 11 | 351 | 22.5 | 29.0 | 0.05 | 1.65 | 0.76 | 95 | 1020.4 |
| 20260906085020 | 11 | 31 | 17.7 | 32.2 | 0.08 | 1.65 | 0.76 | 94 | 1020.5 |
| 20260906084519 | 11 | 337 | 19.3 | 33.8 | 0.15 | 1.65 | 0.76 | 95 | 1020.4 |
| 20260906084019 | 11 | 332 | 19.3 | 35.4 | 0.20 | 1.65 | 0.76 | 94 | 1020.2 |
| 20260906083521 | 11 | 360 | 22.5 | 35.4 | 0.20 | 1.63 | 0.71 | 95 | 1020.0 |
| 20260906083016 | 11 | 5 | 24.1 | 32.2 | 0.23 | 1.63 | 0.71 | 94 | 1020.3 |
| 20260906082515 | 11 | 44 | 19.3 | 29.0 | 0.25 | 1.63 | 0.71 | 94 | 1020.3 |
| 20260906082014 | 11 | 5 | 19.3 | 29.0 | 0.28 | 1.63 | 0.71 | 94 | 1020.3 |
| 20260906081534 | 11 | 18 | 17.7 | 27.4 | 0.33 | 1.63 | 0.71 | 94 | 1020.6 |
| 20260906081013 | 11 | 340 | 12.9 | 20.9 | 0.36 | 1.63 | 0.71 | 94 | 1021.4 |
| 20260906080515 | 11 | 5 | 12.9 | 20.9 | 0.38 | 1.63 | 0.71 | 94 | 1021.5 |
| 20260906080010 | 11 | 360 | 14.5 | 20.9 | 0.41 | 1.63 | 0.71 | 94 | 1021.7 |
| 20260906075512 | 11 | 342 | 11.3 | 19.3 | 0.41 | 1.60 | 0.71 | 94 | 1022.0 |
| 20260906075010 | 11 | 341 | 12.9 | 16.1 | 0.41 | 1.57 | 0.69 | 94 | 1022.1 |
| 20260906074509 | 11 | 315 | 4.8 | 16.1 | 0.41 | 1.50 | 0.61 | 94 | 1022.6 |
| 20260906074008 | 11 | 5 | 8.0 | 16.1 | 0.41 | 1.42 | 0.56 | 94 | 1022.4 |
| 20260906073507 | 11 | 5 | 9.7 | 24.1 | 0.41 | 1.42 | 0.53 | 94 | 1022.3 |
| 20260906073008 | 11 | 9 | 11.3 | 24.1 | 0.38 | 1.40 | 0.51 | 94 | 1022.0 |
| 20260906072507 | 11 | 360 | 12.9 | 22.5 | 0.38 | 1.37 | 0.48 | 94 | 1021.9 |
| 20260906072007 | 11 | 27 | 12.9 | 22.5 | 0.38 | 1.35 | 0.46 | 94 | 1022.2 |
| 20260906071506 | 11 | 5 | 14.5 | 25.7 | 0.33 | 1.30 | 0.41 | 94 | 1022.4 |
| 20260906071005 | 11 | 340 | 12.9 | 25.7 | 0.30 | 1.27 | 0.38 | 94 | 1022.4 |
| 20260906070505 | 11 | 355 | 16.1 | 22.5 | 0.30 | 1.24 | 0.36 | 94 | 1022.4 |
| 20260906070004 | 11 | 320 | 14.5 | 22.5 | 0.30 | 1.22 | 0.33 | 94 | 1022.5 |
| 20260906065503 | 11 | 331 | 14.5 | 20.9 | 0.33 | 1.19 | 0.30 | 94 | 1022.8 |
| 20260906065003 | 11 | 315 | 14.5 | 20.9 | 0.30 | 1.14 | 0.25 | 93 | 1022.7 |
| 20260906064501 | 11 | 325 | 16.1 | 20.9 | 0.25 | 1.09 | 0.20 | 93 | 1022.6 |
| 20260906064002 | 11 | 326 | 12.9 | 19.3 | 0.25 | 1.04 | 0.15 | 93 | 1022.5 |
| 20260906063602 | 11 | 360 | 12.9 | 19.3 | 0.28 | 1.02 | 0.13 | 93 | 1022.6 |
| 20260906063059 | 11 | 23 | 12.9 | 22.5 | 0.36 | 1.02 | 0.13 | 92 | 1022.5 |
| 20260906062559 | 11 | 349 | 12.9 | 22.5 | 0.36 | 0.99 | 0.10 | 92 | 1022.6 |
| 20260906062102 | 11 | 15 | 12.9 | 25.7 | 0.38 | 0.97 | 0.08 | 92 | 1022.6 |
| 20260906061557 | 12 | 11 | 14.5 | 25.7 | 0.43 | 0.97 | 0.08 | 92 | 1022.3 |
| 20260906061057 | 12 | 5 | 16.1 | 25.7 | 0.51 | 0.97 | 0.08 | 92 | 1022.0 |
| 20260906060559 | 12 | 5 | 17.7 | 25.7 | 0.53 | 0.94 | 0.05 | 92 | 1022.1 |
| 20260906060055 | 12 | 5 | 14.5 | 20.9 | 0.56 | 0.91 | 0.03 | 92 | 1022.6 |
| 20260906055558 | 12 | 360 | 11.3 | 24.1 | 0.56 | 0.91 | 0.89 | 92 | 1022.7 |
| 20260906055157 | 12 | 351 | 16.1 | 24.1 | 0.56 | 0.89 | 0.86 | 92 | 1022.7 |
| 20260906054555 | 12 | 332 | 12.9 | 22.5 | 0.56 | 0.86 | 0.84 | 92 | 1022.7 |
| 20260906054054 | 12 | 333 | 12.9 | 20.9 | 0.53 | 0.81 | 0.79 | 92 | 1022.7 |
| 20260906053554 | 12 | 321 | 11.3 | 17.7 | 0.46 | 0.71 | 0.71 | 92 | 1023.3 |
| 20260906053053 | 12 | 275 | 11.3 | 17.7 | 0.41 | 0.69 | 0.66 | 92 | 1023.8 |
| 20260906052554 | 12 | 283 | 11.3 | 16.1 | 0.38 | 0.64 | 0.61 | 91 | 1023.6 |
| 20260906052051 | 12 | 288 | 8.0 | 16.1 | 0.36 | 0.61 | 0.58 | 91 | 1023.6 |
| 20260906051552 | 12 | 312 | 11.3 | 16.1 | 0.28 | 0.53 | 0.51 | 90 | 1023.6 |
| 20260906051055 | 12 | 319 | 8.0 | 12.9 | 0.23 | 0.48 | 0.46 | 90 | 1023.6 |
| 20260906050551 | 12 | 317 | 6.4 | 14.5 | 0.15 | 0.41 | 0.38 | 89 | 1023.5 |
| 20260906050100 | 12 | 343 | 6.4 | 14.5 | 0.13 | 0.38 | 0.36 | 89 | 1023.4 |
| 20260906045548 | 12 | 336 | 8.0 | 16.1 | 0.10 | 0.43 | 0.33 | 89 | 1023.3 |
| 20260906045047 | 12 | 5 | 9.7 | 16.1 | 0.05 | 0.38 | 0.28 | 88 | 1023.3 |
| 20260906044546 | 12 | 311 | 11.3 | 17.7 | 0.05 | 0.38 | 0.28 | 88 | 1023.1 |
| 20260906044046 | 12 | 348 | 12.9 | 22.5 | 0.03 | 0.36 | 0.25 | 88 | 1022.9 |
| 20260906043543 | 12 | 327 | 14.5 | 24.1 | 0.03 | 0.36 | 0.25 | 87 | 1022.4 |
| 20260906043047 | 12 | 319 | 16.1 | 22.5 | 0.03 | 0.36 | 0.25 | 87 | 1022.2 |
| 20260906042542 | 12 | 327 | 14.5 | 22.5 | 0.00 | 0.33 | 0.23 | 86 | 1022.1 |
| 20260906042042 | 13 | 323 | 12.9 | 25.7 | 0.00 | 0.33 | 0.23 | 86 | 1022.2 |
| 20260906041546 | 13 | 334 | 16.1 | 25.7 | 0.03 | 0.33 | 0.23 | 85 | 1022.4 |
| 20260906041041 | 13 | 321 | 14.5 | 29.0 | 0.05 | 0.33 | 0.23 | 85 | 1022.3 |
| 20260906040544 | 13 | 348 | 20.9 | 29.0 | 0.05 | 0.33 | 0.23 | 85 | 1022.2 |
| 20260906040041 | 13 | 322 | 19.3 | 30.6 | 0.05 | 0.33 | 0.23 | 84 | 1022.1 |
| 20260906035544 | 13 | 329 | 19.3 | 30.6 | 0.05 | 0.33 | 0.23 | 84 | 1021.9 |
| 20260906035040 | 13 | 315 | 17.7 | 29.0 | 0.05 | 0.33 | 0.23 | 83 | 1022.0 |
| 20260906034545 | 13 | 335 | 16.1 | 37.0 | 0.05 | 0.33 | 0.23 | 83 | 1022.0 |
| 20260906034039 | 13 | 325 | 16.1 | 37.0 | 0.05 | 0.33 | 0.23 | 82 | 1022.0 |
| 20260906033538 | 13 | 342 | 11.3 | 22.5 | 0.05 | 0.33 | 0.23 | 82 | 1021.8 |
| 20260906033040 | 13 | 80 | 11.3 | 25.7 | 0.05 | 0.33 | 0.23 | 82 | 1022.0 |
| 20260906032538 | 13 | 5 | 16.1 | 30.6 | 0.05 | 0.33 | 0.23 | 81 | 1021.9 |
| 20260906032038 | 13 | 331 | 16.1 | 22.5 | 0.05 | 0.33 | 0.23 | 81 | 1021.9 |
| 20260906031547 | 13 | 336 | 11.3 | 19.3 | 0.03 | 0.30 | 0.20 | 79 | 1021.9 |
| 20260906031036 | 14 | 325 | 12.9 | 22.5 | 0.00 | 0.28 | 0.18 | 78 | 1021.8 |
| 20260906030537 | 14 | 342 | 12.9 | 22.5 | 0.00 | 0.28 | 0.18 | 77 | 1021.8 |
| 20260906030035 | 14 | 342 | 12.9 | 20.9 | 0.00 | 0.28 | 0.18 | 77 | 1021.8 |
| 20260906025535 | 14 | 313 | 14.5 | 25.7 | 0.00 | 0.28 | 0.18 | 76 | 1021.7 |
| 20260906025034 | 15 | 311 | 14.5 | 25.7 | 0.00 | 0.28 | 0.18 | 75 | 1021.4 |
| 20260906024532 | 15 | 360 | 16.1 | 24.1 | 0.00 | 0.28 | 0.18 | 73 | 1021.2 |
| 20260906024032 | 15 | 345 | 16.1 | 22.5 | 0.00 | 0.28 | 0.18 | 73 | 1021.0 |
| 20260906023532 | 15 | 336 | 14.5 | 25.7 | 0.00 | 0.28 | 0.18 | 73 | 1021.0 |
| 20260906023032 | 15 | 15 | 16.1 | 25.7 | 0.00 | 0.28 | 0.18 | 73 | 1020.9 |
| 20260906022531 | 15 | 346 | 14.5 | 22.5 | 0.00 | 0.28 | 0.18 | 74 | 1020.8 |
| 20260906022036 | 15 | 333 | 16.1 | 22.5 | 0.00 | 0.28 | 0.18 | 73 | 1020.6 |
| 20260906021532 | 15 | 338 | 14.5 | 24.1 | 0.00 | 0.28 | 0.18 | 72 | 1020.5 |
| 20260906021031 | 15 | 360 | 17.7 | 27.4 | 0.00 | 0.28 | 0.18 | 72 | 1020.3 |
| 20260906020531 | 15 | 341 | 17.7 | 27.4 | 0.00 | 0.28 | 0.18 | 72 | 1020.2 |
| 20260906020043 | 15 | 337 | 17.7 | 24.1 | 0.00 | 0.28 | 0.18 | 72 | 1020.3 |
| 20260906015531 | 15 | 335 | 16.1 | 24.1 | 0.00 | 0.28 | 0.18 | 71 | 1020.4 |
| 20260906015031 | 15 | 321 | 17.7 | 25.7 | 0.00 | 0.28 | 0.18 | 71 | 1020.3 |
| 20260906014534 | 16 | 326 | 14.5 | 22.5 | 0.00 | 0.28 | 0.18 | 71 | 1020.4 |
| 20260906014030 | 16 | 321 | 14.5 | 27.4 | 0.00 | 0.28 | 0.18 | 70 | 1020.5 |
| 20260906013530 | 16 | 346 | 16.1 | 27.4 | 0.00 | 0.28 | 0.18 | 70 | 1020.4 |
| 20260906013030 | 16 | 336 | 17.7 | 32.2 | 0.00 | 0.28 | 0.18 | 69 | 1020.4 |
| 20260906012529 | 16 | 341 | 20.9 | 29.0 | 0.00 | 0.28 | 0.18 | 69 | 1020.3 |
| 20260906012030 | 16 | 336 | 17.7 | 27.4 | 0.00 | 0.28 | 0.18 | 68 | 1020.2 |
| 20260906011529 | 16 | 338 | 17.7 | 29.0 | 0.00 | 0.28 | 0.18 | 69 | 1020.0 |
| 20260906011032 | 16 | 355 | 19.3 | 29.0 | 0.00 | 0.28 | 0.18 | 68 | 1020.0 |
| 20260906010529 | 16 | 360 | 17.7 | 30.6 | 0.00 | 0.28 | 0.18 | 67 | 1020.1 |
| 20260906010029 | 17 | 5 | 17.7 | 30.6 | 0.00 | 0.28 | 0.18 | 66 | 1019.9 |
| 20260906005528 | 17 | 338 | 17.7 | 25.7 | 0.00 | 0.28 | 0.18 | 65 | 1019.8 |
| 20260906005028 | 17 | 334 | 17.7 | 25.7 | 0.00 | 0.28 | 0.18 | 65 | 1019.8 |
| 20260906004528 | 17 | 346 | 16.1 | 24.1 | 0.00 | 0.28 | 0.18 | 65 | 1019.9 |
| 20260906004028 | 17 | 312 | 14.5 | 27.4 | 0.00 | 0.28 | 0.18 | 65 | 1020.1 |
| 20260906003527 | 17 | 339 | 14.5 | 27.4 | 0.00 | 0.28 | 0.18 | 65 | 1020.0 |
| 20260906003029 | 17 | 355 | 16.1 | 27.4 | 0.00 | 0.28 | 0.18 | 64 | 1019.9 |
| 20260906002528 | 18 | 305 | 16.1 | 24.1 | 0.00 | 0.28 | 0.18 | 64 | 1019.9 |
| 20260906002029 | 18 | 348 | 17.7 | 27.4 | 0.00 | 0.28 | 0.18 | 64 | 1019.9 |
| 20260906001531 | 18 | 341 | 16.1 | 27.4 | 0.00 | 0.28 | 0.18 | 64 | 1019.9 |
| 20260906001026 | 18 | 5 | 16.1 | 22.5 | 0.00 | 0.28 | 0.18 | 64 | 1020.0 |
| 20260906000527 | 18 | 348 | 14.5 | 22.5 | 0.00 | 0.28 | 0.18 | 64 | 1020.0 |
| 20260906000027 | 18 | 360 | 14.5 | 20.9 | 0.00 | 0.28 | 0.18 | 65 | 1019.9 |
| 20260905235527 | 18 | 350 | 11.3 | 20.9 | 0.00 | 0.28 | 0.18 | 64 | 1019.9 |
| 20260905235028 | 18 | 331 | 12.9 | 22.5 | 0.00 | 0.28 | 0.18 | 65 | 1020.0 |